Index of /20260414/WXO-DD/model_rdps/10km/12/077
Name Last modified Size Description
Parent Directory -
20260414T12Z_MSC_RDPS_AbsoluteVorticity_IsbL-0250_RLatLon0.09_PT077H.grib2 2026-04-14 15:03 606K
20260414T12Z_MSC_RDPS_AbsoluteVorticity_IsbL-0500_RLatLon0.09_PT077H.grib2 2026-04-14 15:03 549K
20260414T12Z_MSC_RDPS_AbsoluteVorticity_IsbL-0700_RLatLon0.09_PT077H.grib2 2026-04-14 15:03 604K
20260414T12Z_MSC_RDPS_AbsoluteVorticity_IsbL-0850_RLatLon0.09_PT077H.grib2 2026-04-14 15:03 777K
20260414T12Z_MSC_RDPS_AirTemp_AGL-120m_RLatLon0.09_PT077H.grib2 2026-04-14 15:03 386K
20260414T12Z_MSC_RDPS_AirTemp_AGL-2m_RLatLon0.09_PT077H.grib2 2026-04-14 15:03 647K
20260414T12Z_MSC_RDPS_AirTemp_AGL-40m_RLatLon0.09_PT077H.grib2 2026-04-14 15:03 413K
20260414T12Z_MSC_RDPS_AirTemp_AGL-80m_RLatLon0.09_PT077H.grib2 2026-04-14 15:03 407K
20260414T12Z_MSC_RDPS_AirTemp_IsbL-0001_RLatLon0.09_PT077H.grib2 2026-04-14 15:03 324K
20260414T12Z_MSC_RDPS_AirTemp_IsbL-0005_RLatLon0.09_PT077H.grib2 2026-04-14 15:03 335K
20260414T12Z_MSC_RDPS_AirTemp_IsbL-0010_RLatLon0.09_PT077H.grib2 2026-04-14 15:03 306K
20260414T12Z_MSC_RDPS_AirTemp_IsbL-0020_RLatLon0.09_PT077H.grib2 2026-04-14 15:03 327K
20260414T12Z_MSC_RDPS_AirTemp_IsbL-0030_RLatLon0.09_PT077H.grib2 2026-04-14 15:03 383K
20260414T12Z_MSC_RDPS_AirTemp_IsbL-0050_RLatLon0.09_PT077H.grib2 2026-04-14 15:03 326K
20260414T12Z_MSC_RDPS_AirTemp_IsbL-0100_RLatLon0.09_PT077H.grib2 2026-04-14 15:03 426K
20260414T12Z_MSC_RDPS_AirTemp_IsbL-0150_RLatLon0.09_PT077H.grib2 2026-04-14 15:03 405K
20260414T12Z_MSC_RDPS_AirTemp_IsbL-0175_RLatLon0.09_PT077H.grib2 2026-04-14 15:03 405K
20260414T12Z_MSC_RDPS_AirTemp_IsbL-0200_RLatLon0.09_PT077H.grib2 2026-04-14 15:03 411K
20260414T12Z_MSC_RDPS_AirTemp_IsbL-0225_RLatLon0.09_PT077H.grib2 2026-04-14 15:03 412K
20260414T12Z_MSC_RDPS_AirTemp_IsbL-0250_RLatLon0.09_PT077H.grib2 2026-04-14 15:03 420K
20260414T12Z_MSC_RDPS_AirTemp_IsbL-0275_RLatLon0.09_PT077H.grib2 2026-04-14 15:03 402K
20260414T12Z_MSC_RDPS_AirTemp_IsbL-0300_RLatLon0.09_PT077H.grib2 2026-04-14 15:03 406K
20260414T12Z_MSC_RDPS_AirTemp_IsbL-0350_RLatLon0.09_PT077H.grib2 2026-04-14 15:03 416K
20260414T12Z_MSC_RDPS_AirTemp_IsbL-0400_RLatLon0.09_PT077H.grib2 2026-04-14 15:03 416K
20260414T12Z_MSC_RDPS_AirTemp_IsbL-0450_RLatLon0.09_PT077H.grib2 2026-04-14 15:03 386K
20260414T12Z_MSC_RDPS_AirTemp_IsbL-0500_RLatLon0.09_PT077H.grib2 2026-04-14 15:03 395K
20260414T12Z_MSC_RDPS_AirTemp_IsbL-0550_RLatLon0.09_PT077H.grib2 2026-04-14 15:03 414K
20260414T12Z_MSC_RDPS_AirTemp_IsbL-0600_RLatLon0.09_PT077H.grib2 2026-04-14 15:03 434K
20260414T12Z_MSC_RDPS_AirTemp_IsbL-0650_RLatLon0.09_PT077H.grib2 2026-04-14 15:03 447K
20260414T12Z_MSC_RDPS_AirTemp_IsbL-0700_RLatLon0.09_PT077H.grib2 2026-04-14 15:03 368K
20260414T12Z_MSC_RDPS_AirTemp_IsbL-0750_RLatLon0.09_PT077H.grib2 2026-04-14 15:03 407K
20260414T12Z_MSC_RDPS_AirTemp_IsbL-0800_RLatLon0.09_PT077H.grib2 2026-04-14 15:03 458K
20260414T12Z_MSC_RDPS_AirTemp_IsbL-0850_RLatLon0.09_PT077H.grib2 2026-04-14 15:03 504K
20260414T12Z_MSC_RDPS_AirTemp_IsbL-0875_RLatLon0.09_PT077H.grib2 2026-04-14 15:03 523K
20260414T12Z_MSC_RDPS_AirTemp_IsbL-0900_RLatLon0.09_PT077H.grib2 2026-04-14 15:03 534K
20260414T12Z_MSC_RDPS_AirTemp_IsbL-0925_RLatLon0.09_PT077H.grib2 2026-04-14 15:03 536K
20260414T12Z_MSC_RDPS_AirTemp_IsbL-0950_RLatLon0.09_PT077H.grib2 2026-04-14 15:03 537K
20260414T12Z_MSC_RDPS_AirTemp_IsbL-0970_RLatLon0.09_PT077H.grib2 2026-04-14 15:03 542K
20260414T12Z_MSC_RDPS_AirTemp_IsbL-0985_RLatLon0.09_PT077H.grib2 2026-04-14 15:03 534K
20260414T12Z_MSC_RDPS_AirTemp_IsbL-1000_RLatLon0.09_PT077H.grib2 2026-04-14 15:03 518K
20260414T12Z_MSC_RDPS_AirTemp_IsbL-1015_RLatLon0.09_PT077H.grib2 2026-04-14 15:03 517K
20260414T12Z_MSC_RDPS_Albedo_Sfc_RLatLon0.09_PT077H.grib2 2026-04-14 15:03 167K
20260414T12Z_MSC_RDPS_CAPE_Sfc_RLatLon0.09_PT077H.grib2 2026-04-14 15:03 1.7M
20260414T12Z_MSC_RDPS_CIN_Sfc_RLatLon0.09_PT077H.grib2 2026-04-14 15:03 1.2M
20260414T12Z_MSC_RDPS_CloudWater_EAtm_RLatLon0.09_PT077H.grib2 2026-04-14 15:03 212K
20260414T12Z_MSC_RDPS_ConvectivePrecip-Accum_Sfc_RLatLon0.09_PT077H.grib2 2026-04-14 15:03 1.2M
20260414T12Z_MSC_RDPS_DewPointDepression_AGL-2m_RLatLon0.09_PT077H.grib2 2026-04-14 15:03 413K
20260414T12Z_MSC_RDPS_DewPointDepression_IsbL-0001_RLatLon0.09_PT077H.grib2 2026-04-14 15:03 193
20260414T12Z_MSC_RDPS_DewPointDepression_IsbL-0005_RLatLon0.09_PT077H.grib2 2026-04-14 15:03 193
20260414T12Z_MSC_RDPS_DewPointDepression_IsbL-0010_RLatLon0.09_PT077H.grib2 2026-04-14 15:03 193
20260414T12Z_MSC_RDPS_DewPointDepression_IsbL-0020_RLatLon0.09_PT077H.grib2 2026-04-14 15:03 193
20260414T12Z_MSC_RDPS_DewPointDepression_IsbL-0030_RLatLon0.09_PT077H.grib2 2026-04-14 15:03 6.5K
20260414T12Z_MSC_RDPS_DewPointDepression_IsbL-0050_RLatLon0.09_PT077H.grib2 2026-04-14 15:03 103K
20260414T12Z_MSC_RDPS_DewPointDepression_IsbL-0100_RLatLon0.09_PT077H.grib2 2026-04-14 15:03 125K
20260414T12Z_MSC_RDPS_DewPointDepression_IsbL-0150_RLatLon0.09_PT077H.grib2 2026-04-14 15:03 141K
20260414T12Z_MSC_RDPS_DewPointDepression_IsbL-0175_RLatLon0.09_PT077H.grib2 2026-04-14 15:03 174K
20260414T12Z_MSC_RDPS_DewPointDepression_IsbL-0200_RLatLon0.09_PT077H.grib2 2026-04-14 15:03 202K
20260414T12Z_MSC_RDPS_DewPointDepression_IsbL-0225_RLatLon0.09_PT077H.grib2 2026-04-14 15:03 245K
20260414T12Z_MSC_RDPS_DewPointDepression_IsbL-0250_RLatLon0.09_PT077H.grib2 2026-04-14 15:03 291K
20260414T12Z_MSC_RDPS_DewPointDepression_IsbL-0275_RLatLon0.09_PT077H.grib2 2026-04-14 15:03 302K
20260414T12Z_MSC_RDPS_DewPointDepression_IsbL-0300_RLatLon0.09_PT077H.grib2 2026-04-14 15:03 317K
20260414T12Z_MSC_RDPS_DewPointDepression_IsbL-0350_RLatLon0.09_PT077H.grib2 2026-04-14 15:03 321K
20260414T12Z_MSC_RDPS_DewPointDepression_IsbL-0400_RLatLon0.09_PT077H.grib2 2026-04-14 15:03 327K
20260414T12Z_MSC_RDPS_DewPointDepression_IsbL-0450_RLatLon0.09_PT077H.grib2 2026-04-14 15:03 329K
20260414T12Z_MSC_RDPS_DewPointDepression_IsbL-0500_RLatLon0.09_PT077H.grib2 2026-04-14 15:03 335K
20260414T12Z_MSC_RDPS_DewPointDepression_IsbL-0550_RLatLon0.09_PT077H.grib2 2026-04-14 15:03 351K
20260414T12Z_MSC_RDPS_DewPointDepression_IsbL-0600_RLatLon0.09_PT077H.grib2 2026-04-14 15:03 362K
20260414T12Z_MSC_RDPS_DewPointDepression_IsbL-0650_RLatLon0.09_PT077H.grib2 2026-04-14 15:03 376K
20260414T12Z_MSC_RDPS_DewPointDepression_IsbL-0700_RLatLon0.09_PT077H.grib2 2026-04-14 15:03 392K
20260414T12Z_MSC_RDPS_DewPointDepression_IsbL-0750_RLatLon0.09_PT077H.grib2 2026-04-14 15:03 419K
20260414T12Z_MSC_RDPS_DewPointDepression_IsbL-0800_RLatLon0.09_PT077H.grib2 2026-04-14 15:03 452K
20260414T12Z_MSC_RDPS_DewPointDepression_IsbL-0850_RLatLon0.09_PT077H.grib2 2026-04-14 15:03 473K
20260414T12Z_MSC_RDPS_DewPointDepression_IsbL-0875_RLatLon0.09_PT077H.grib2 2026-04-14 15:03 470K
20260414T12Z_MSC_RDPS_DewPointDepression_IsbL-0900_RLatLon0.09_PT077H.grib2 2026-04-14 15:03 465K
20260414T12Z_MSC_RDPS_DewPointDepression_IsbL-0925_RLatLon0.09_PT077H.grib2 2026-04-14 15:03 453K
20260414T12Z_MSC_RDPS_DewPointDepression_IsbL-0950_RLatLon0.09_PT077H.grib2 2026-04-14 15:03 443K
20260414T12Z_MSC_RDPS_DewPointDepression_IsbL-0970_RLatLon0.09_PT077H.grib2 2026-04-14 15:03 439K
20260414T12Z_MSC_RDPS_DewPointDepression_IsbL-0985_RLatLon0.09_PT077H.grib2 2026-04-14 15:03 437K
20260414T12Z_MSC_RDPS_DewPointDepression_IsbL-1000_RLatLon0.09_PT077H.grib2 2026-04-14 15:03 433K
20260414T12Z_MSC_RDPS_DewPointDepression_IsbL-1015_RLatLon0.09_PT077H.grib2 2026-04-14 15:03 427K
20260414T12Z_MSC_RDPS_DewPoint_AGL-2m_RLatLon0.09_PT077H.grib2 2026-04-14 15:03 407K
20260414T12Z_MSC_RDPS_DownwardLongwaveRadiationFlux-Accum_Sfc_RLatLon0.09_PT077H.grib2 2026-04-14 15:03 430K
20260414T12Z_MSC_RDPS_DownwardShortwaveRadiationFlux-Accum_NTAtm_RLatLon0.09_PT077H.grib2 2026-04-14 15:03 133K
20260414T12Z_MSC_RDPS_DownwardShortwaveRadiationFlux-Accum_Sfc_RLatLon0.09_PT077H.grib2 2026-04-14 15:03 613K
20260414T12Z_MSC_RDPS_FreezingRain-Accum1h_Sfc_RLatLon0.09_PT077H.grib2 2026-04-14 15:03 20K
20260414T12Z_MSC_RDPS_FreezingRain-Accum_Sfc_RLatLon0.09_PT077H.grib2 2026-04-14 15:03 165K
20260414T12Z_MSC_RDPS_GeopotentialHeight_IsbL-0001_RLatLon0.09_PT077H.grib2 2026-04-14 15:03 211K
20260414T12Z_MSC_RDPS_GeopotentialHeight_IsbL-0005_RLatLon0.09_PT077H.grib2 2026-04-14 15:03 235K
20260414T12Z_MSC_RDPS_GeopotentialHeight_IsbL-0010_RLatLon0.09_PT077H.grib2 2026-04-14 15:03 309K
20260414T12Z_MSC_RDPS_GeopotentialHeight_IsbL-0020_RLatLon0.09_PT077H.grib2 2026-04-14 15:03 337K
20260414T12Z_MSC_RDPS_GeopotentialHeight_IsbL-0030_RLatLon0.09_PT077H.grib2 2026-04-14 15:03 339K
20260414T12Z_MSC_RDPS_GeopotentialHeight_IsbL-0050_RLatLon0.09_PT077H.grib2 2026-04-14 15:03 237K
20260414T12Z_MSC_RDPS_GeopotentialHeight_IsbL-0100_RLatLon0.09_PT077H.grib2 2026-04-14 15:03 223K
20260414T12Z_MSC_RDPS_GeopotentialHeight_IsbL-0150_RLatLon0.09_PT077H.grib2 2026-04-14 15:03 262K
20260414T12Z_MSC_RDPS_GeopotentialHeight_IsbL-0175_RLatLon0.09_PT077H.grib2 2026-04-14 15:03 264K
20260414T12Z_MSC_RDPS_GeopotentialHeight_IsbL-0200_RLatLon0.09_PT077H.grib2 2026-04-14 15:03 265K
20260414T12Z_MSC_RDPS_GeopotentialHeight_IsbL-0225_RLatLon0.09_PT077H.grib2 2026-04-14 15:03 266K
20260414T12Z_MSC_RDPS_GeopotentialHeight_IsbL-0250_RLatLon0.09_PT077H.grib2 2026-04-14 15:03 267K
20260414T12Z_MSC_RDPS_GeopotentialHeight_IsbL-0275_RLatLon0.09_PT077H.grib2 2026-04-14 15:03 266K
20260414T12Z_MSC_RDPS_GeopotentialHeight_IsbL-0300_RLatLon0.09_PT077H.grib2 2026-04-14 15:03 266K
20260414T12Z_MSC_RDPS_GeopotentialHeight_IsbL-0350_RLatLon0.09_PT077H.grib2 2026-04-14 15:03 260K
20260414T12Z_MSC_RDPS_GeopotentialHeight_IsbL-0400_RLatLon0.09_PT077H.grib2 2026-04-14 15:03 226K
20260414T12Z_MSC_RDPS_GeopotentialHeight_IsbL-0450_RLatLon0.09_PT077H.grib2 2026-04-14 15:03 221K
20260414T12Z_MSC_RDPS_GeopotentialHeight_IsbL-0500_RLatLon0.09_PT077H.grib2 2026-04-14 15:03 287K
20260414T12Z_MSC_RDPS_GeopotentialHeight_IsbL-0550_RLatLon0.09_PT077H.grib2 2026-04-14 15:03 283K
20260414T12Z_MSC_RDPS_GeopotentialHeight_IsbL-0600_RLatLon0.09_PT077H.grib2 2026-04-14 15:03 280K
20260414T12Z_MSC_RDPS_GeopotentialHeight_IsbL-0650_RLatLon0.09_PT077H.grib2 2026-04-14 15:03 277K
20260414T12Z_MSC_RDPS_GeopotentialHeight_IsbL-0700_RLatLon0.09_PT077H.grib2 2026-04-14 15:03 249K
20260414T12Z_MSC_RDPS_GeopotentialHeight_IsbL-0750_RLatLon0.09_PT077H.grib2 2026-04-14 15:03 252K
20260414T12Z_MSC_RDPS_GeopotentialHeight_IsbL-0800_RLatLon0.09_PT077H.grib2 2026-04-14 15:03 343K
20260414T12Z_MSC_RDPS_GeopotentialHeight_IsbL-0850_RLatLon0.09_PT077H.grib2 2026-04-14 15:03 354K
20260414T12Z_MSC_RDPS_GeopotentialHeight_IsbL-0875_RLatLon0.09_PT077H.grib2 2026-04-14 15:03 358K
20260414T12Z_MSC_RDPS_GeopotentialHeight_IsbL-0900_RLatLon0.09_PT077H.grib2 2026-04-14 15:03 363K
20260414T12Z_MSC_RDPS_GeopotentialHeight_IsbL-0925_RLatLon0.09_PT077H.grib2 2026-04-14 15:03 364K
20260414T12Z_MSC_RDPS_GeopotentialHeight_IsbL-0950_RLatLon0.09_PT077H.grib2 2026-04-14 15:03 369K
20260414T12Z_MSC_RDPS_GeopotentialHeight_IsbL-0970_RLatLon0.09_PT077H.grib2 2026-04-14 15:03 375K
20260414T12Z_MSC_RDPS_GeopotentialHeight_IsbL-0985_RLatLon0.09_PT077H.grib2 2026-04-14 15:03 385K
20260414T12Z_MSC_RDPS_GeopotentialHeight_IsbL-1000_RLatLon0.09_PT077H.grib2 2026-04-14 15:03 399K
20260414T12Z_MSC_RDPS_GeopotentialHeight_IsbL-1015_RLatLon0.09_PT077H.grib2 2026-04-14 15:03 415K
20260414T12Z_MSC_RDPS_Humidex_Sfc_RLatLon0.09_PT077H.grib2 2026-04-14 15:03 2.4M
20260414T12Z_MSC_RDPS_IcePellets-Accum1h_Sfc_RLatLon0.09_PT077H.grib2 2026-04-14 15:03 8.4K
20260414T12Z_MSC_RDPS_IcePellets-Accum_Sfc_RLatLon0.09_PT077H.grib2 2026-04-14 15:03 43K
20260414T12Z_MSC_RDPS_KIndex_Sfc_RLatLon0.09_PT077H.grib2 2026-04-14 15:03 2.5M
20260414T12Z_MSC_RDPS_LatentHeatNetFlux_Sfc_RLatLon0.09_PT077H.grib2 2026-04-14 15:03 287K
20260414T12Z_MSC_RDPS_LiftedIndex-MU-VT_IsbL-0500_RLatLon0.09_PT077H.grib2 2026-04-14 15:03 2.4M
20260414T12Z_MSC_RDPS_NetLongwaveRadiationFlux-Accum_Sfc_RLatLon0.09_PT077H.grib2 2026-04-14 15:03 476K
20260414T12Z_MSC_RDPS_NetShortwaveRadiationFlux-Accum_Sfc_RLatLon0.09_PT077H.grib2 2026-04-14 15:03 622K
20260414T12Z_MSC_RDPS_PlanetaryBoundaryLayerHeight_Sfc_RLatLon0.09_PT077H.grib2 2026-04-14 15:03 1.0M
20260414T12Z_MSC_RDPS_Precip-Accum1h_Sfc_RLatLon0.09_PT077H.grib2 2026-04-14 15:03 1.2M
20260414T12Z_MSC_RDPS_Precip-Accum_Sfc_RLatLon0.09_PT077H.grib2 2026-04-14 15:03 2.2M
20260414T12Z_MSC_RDPS_PrecipRate_Sfc_RLatLon0.09_PT077H.grib2 2026-04-14 15:03 174K
20260414T12Z_MSC_RDPS_PrecipType-Instant_Sfc_RLatLon0.09_PT077H.grib2 2026-04-14 15:03 550K
20260414T12Z_MSC_RDPS_Pressure-Trend3h_Sfc_RLatLon0.09_PT077H.grib2 2026-04-14 15:03 1.2M
20260414T12Z_MSC_RDPS_Pressure_MSL_RLatLon0.09_PT077H.grib2 2026-04-14 15:03 299K
20260414T12Z_MSC_RDPS_Pressure_PVU-1.5_RLatLon0.09_PT077H.grib2 2026-04-14 15:03 2.3M
20260414T12Z_MSC_RDPS_Pressure_PVU-1_RLatLon0.09_PT077H.grib2 2026-04-14 15:03 2.4M
20260414T12Z_MSC_RDPS_Pressure_PVU-2_RLatLon0.09_PT077H.grib2 2026-04-14 15:03 2.4M
20260414T12Z_MSC_RDPS_Pressure_Sfc_RLatLon0.09_PT077H.grib2 2026-04-14 15:03 500K
20260414T12Z_MSC_RDPS_RadiativeTemp_Sfc_RLatLon0.09_PT077H.grib2 2026-04-14 15:03 331K
20260414T12Z_MSC_RDPS_Rain-Accum1h_Sfc_RLatLon0.09_PT077H.grib2 2026-04-14 15:03 557K
20260414T12Z_MSC_RDPS_Rain-Accum_Sfc_RLatLon0.09_PT077H.grib2 2026-04-14 15:03 1.7M
20260414T12Z_MSC_RDPS_RelativeHumidity_AGL-2m_RLatLon0.09_PT077H.grib2 2026-04-14 15:03 1.0M
20260414T12Z_MSC_RDPS_RelativeHumidity_IsbL-0010_RLatLon0.09_PT077H.grib2 2026-04-14 15:03 638K
20260414T12Z_MSC_RDPS_RelativeHumidity_IsbL-0020_RLatLon0.09_PT077H.grib2 2026-04-14 15:03 540K
20260414T12Z_MSC_RDPS_RelativeHumidity_IsbL-0030_RLatLon0.09_PT077H.grib2 2026-04-14 15:03 358K
20260414T12Z_MSC_RDPS_RelativeHumidity_IsbL-0050_RLatLon0.09_PT077H.grib2 2026-04-14 15:03 335K
20260414T12Z_MSC_RDPS_RelativeHumidity_IsbL-0100_RLatLon0.09_PT077H.grib2 2026-04-14 15:03 262K
20260414T12Z_MSC_RDPS_RelativeHumidity_IsbL-0150_RLatLon0.09_PT077H.grib2 2026-04-14 15:03 373K
20260414T12Z_MSC_RDPS_RelativeHumidity_IsbL-0175_RLatLon0.09_PT077H.grib2 2026-04-14 15:03 454K
20260414T12Z_MSC_RDPS_RelativeHumidity_IsbL-0200_RLatLon0.09_PT077H.grib2 2026-04-14 15:03 533K
20260414T12Z_MSC_RDPS_RelativeHumidity_IsbL-0225_RLatLon0.09_PT077H.grib2 2026-04-14 15:03 605K
20260414T12Z_MSC_RDPS_RelativeHumidity_IsbL-0250_RLatLon0.09_PT077H.grib2 2026-04-14 15:03 683K
20260414T12Z_MSC_RDPS_RelativeHumidity_IsbL-0275_RLatLon0.09_PT077H.grib2 2026-04-14 15:03 710K
20260414T12Z_MSC_RDPS_RelativeHumidity_IsbL-0300_RLatLon0.09_PT077H.grib2 2026-04-14 15:03 752K
20260414T12Z_MSC_RDPS_RelativeHumidity_IsbL-0350_RLatLon0.09_PT077H.grib2 2026-04-14 15:03 765K
20260414T12Z_MSC_RDPS_RelativeHumidity_IsbL-0400_RLatLon0.09_PT077H.grib2 2026-04-14 15:03 773K
20260414T12Z_MSC_RDPS_RelativeHumidity_IsbL-0450_RLatLon0.09_PT077H.grib2 2026-04-14 15:03 776K
20260414T12Z_MSC_RDPS_RelativeHumidity_IsbL-0500_RLatLon0.09_PT077H.grib2 2026-04-14 15:03 784K
20260414T12Z_MSC_RDPS_RelativeHumidity_IsbL-0550_RLatLon0.09_PT077H.grib2 2026-04-14 15:03 816K
20260414T12Z_MSC_RDPS_RelativeHumidity_IsbL-0600_RLatLon0.09_PT077H.grib2 2026-04-14 15:03 836K
20260414T12Z_MSC_RDPS_RelativeHumidity_IsbL-0650_RLatLon0.09_PT077H.grib2 2026-04-14 15:03 849K
20260414T12Z_MSC_RDPS_RelativeHumidity_IsbL-0700_RLatLon0.09_PT077H.grib2 2026-04-14 15:03 876K
20260414T12Z_MSC_RDPS_RelativeHumidity_IsbL-0750_RLatLon0.09_PT077H.grib2 2026-04-14 15:03 921K
20260414T12Z_MSC_RDPS_RelativeHumidity_IsbL-0800_RLatLon0.09_PT077H.grib2 2026-04-14 15:03 1.0M
20260414T12Z_MSC_RDPS_RelativeHumidity_IsbL-0850_RLatLon0.09_PT077H.grib2 2026-04-14 15:03 1.0M
20260414T12Z_MSC_RDPS_RelativeHumidity_IsbL-0875_RLatLon0.09_PT077H.grib2 2026-04-14 15:03 1.1M
20260414T12Z_MSC_RDPS_RelativeHumidity_IsbL-0900_RLatLon0.09_PT077H.grib2 2026-04-14 15:03 1.1M
20260414T12Z_MSC_RDPS_RelativeHumidity_IsbL-0925_RLatLon0.09_PT077H.grib2 2026-04-14 15:03 1.1M
20260414T12Z_MSC_RDPS_RelativeHumidity_IsbL-0950_RLatLon0.09_PT077H.grib2 2026-04-14 15:03 1.1M
20260414T12Z_MSC_RDPS_RelativeHumidity_IsbL-0970_RLatLon0.09_PT077H.grib2 2026-04-14 15:03 1.1M
20260414T12Z_MSC_RDPS_RelativeHumidity_IsbL-0985_RLatLon0.09_PT077H.grib2 2026-04-14 15:03 1.0M
20260414T12Z_MSC_RDPS_RelativeHumidity_IsbL-1000_RLatLon0.09_PT077H.grib2 2026-04-14 15:03 1.0M
20260414T12Z_MSC_RDPS_RelativeHumidity_IsbL-1015_RLatLon0.09_PT077H.grib2 2026-04-14 15:03 1.0M
20260414T12Z_MSC_RDPS_Runoff-Accum_Sfc_RLatLon0.09_PT077H.grib2 2026-04-14 15:03 48K
20260414T12Z_MSC_RDPS_SWEATIndex_Sfc_RLatLon0.09_PT077H.grib2 2026-04-14 15:03 2.4M
20260414T12Z_MSC_RDPS_SeeingIndex_EAtm_RLatLon0.09_PT077H.grib2 2026-04-14 15:03 1.0M
20260414T12Z_MSC_RDPS_SensibleHeatNetFlux_Sfc_RLatLon0.09_PT077H.grib2 2026-04-14 15:03 361K
20260414T12Z_MSC_RDPS_ShowalterIndex_IsbL-0500_RLatLon0.09_PT077H.grib2 2026-04-14 15:03 2.6M
20260414T12Z_MSC_RDPS_SkyTransparencyIndex_EAtm_RLatLon0.09_PT077H.grib2 2026-04-14 15:03 716K
20260414T12Z_MSC_RDPS_Snow-Accum1h_Sfc_RLatLon0.09_PT077H.grib2 2026-04-14 15:03 507K
20260414T12Z_MSC_RDPS_Snow-Accum_Sfc_RLatLon0.09_PT077H.grib2 2026-04-14 15:03 891K
20260414T12Z_MSC_RDPS_SnowDensity_Sfc_RLatLon0.09_PT077H.grib2 2026-04-14 15:03 180K
20260414T12Z_MSC_RDPS_SnowDepth_Sfc_RLatLon0.09_PT077H.grib2 2026-04-14 15:03 745K
20260414T12Z_MSC_RDPS_SoilTemp_DBS-0to10cm_RLatLon0.09_PT077H.grib2 2026-04-14 15:03 240K
20260414T12Z_MSC_RDPS_SoilTemp_Sfc_RLatLon0.09_PT077H.grib2 2026-04-14 15:03 294K
20260414T12Z_MSC_RDPS_SoilVolumetricIceContent_Sfc_RLatLon0.09_PT077H.grib2 2026-04-14 15:03 178K
20260414T12Z_MSC_RDPS_SoilVolumetricWaterContent_DBS-0to10cm_RLatLon0.09_PT077H.grib2 2026-04-14 15:03 245K
20260414T12Z_MSC_RDPS_SoilVolumetricWaterContent_DBS-0to1cm_RLatLon0.09_PT077H.grib2 2026-04-14 15:03 337K
20260414T12Z_MSC_RDPS_SpecificHumidity_AGL-120m_RLatLon0.09_PT077H.grib2 2026-04-14 15:03 489K
20260414T12Z_MSC_RDPS_SpecificHumidity_AGL-2m_RLatLon0.09_PT077H.grib2 2026-04-14 15:03 655K
20260414T12Z_MSC_RDPS_SpecificHumidity_AGL-40m_RLatLon0.09_PT077H.grib2 2026-04-14 15:03 492K
20260414T12Z_MSC_RDPS_SpecificHumidity_AGL-80m_RLatLon0.09_PT077H.grib2 2026-04-14 15:03 490K
20260414T12Z_MSC_RDPS_SpecificHumidity_IsbL-0001_RLatLon0.09_PT077H.grib2 2026-04-14 15:03 311K
20260414T12Z_MSC_RDPS_SpecificHumidity_IsbL-0005_RLatLon0.09_PT077H.grib2 2026-04-14 15:03 334K
20260414T12Z_MSC_RDPS_SpecificHumidity_IsbL-0010_RLatLon0.09_PT077H.grib2 2026-04-14 15:03 367K
20260414T12Z_MSC_RDPS_SpecificHumidity_IsbL-0020_RLatLon0.09_PT077H.grib2 2026-04-14 15:03 369K
20260414T12Z_MSC_RDPS_SpecificHumidity_IsbL-0030_RLatLon0.09_PT077H.grib2 2026-04-14 15:03 420K
20260414T12Z_MSC_RDPS_SpecificHumidity_IsbL-0050_RLatLon0.09_PT077H.grib2 2026-04-14 15:03 374K
20260414T12Z_MSC_RDPS_SpecificHumidity_IsbL-0100_RLatLon0.09_PT077H.grib2 2026-04-14 15:03 526K
20260414T12Z_MSC_RDPS_SpecificHumidity_IsbL-0150_RLatLon0.09_PT077H.grib2 2026-04-14 15:03 429K
20260414T12Z_MSC_RDPS_SpecificHumidity_IsbL-0175_RLatLon0.09_PT077H.grib2 2026-04-14 15:03 419K
20260414T12Z_MSC_RDPS_SpecificHumidity_IsbL-0200_RLatLon0.09_PT077H.grib2 2026-04-14 15:03 427K
20260414T12Z_MSC_RDPS_SpecificHumidity_IsbL-0225_RLatLon0.09_PT077H.grib2 2026-04-14 15:03 432K
20260414T12Z_MSC_RDPS_SpecificHumidity_IsbL-0250_RLatLon0.09_PT077H.grib2 2026-04-14 15:03 545K
20260414T12Z_MSC_RDPS_SpecificHumidity_IsbL-0275_RLatLon0.09_PT077H.grib2 2026-04-14 15:03 459K
20260414T12Z_MSC_RDPS_SpecificHumidity_IsbL-0300_RLatLon0.09_PT077H.grib2 2026-04-14 15:03 528K
20260414T12Z_MSC_RDPS_SpecificHumidity_IsbL-0350_RLatLon0.09_PT077H.grib2 2026-04-14 15:03 516K
20260414T12Z_MSC_RDPS_SpecificHumidity_IsbL-0400_RLatLon0.09_PT077H.grib2 2026-04-14 15:03 495K
20260414T12Z_MSC_RDPS_SpecificHumidity_IsbL-0450_RLatLon0.09_PT077H.grib2 2026-04-14 15:03 544K
20260414T12Z_MSC_RDPS_SpecificHumidity_IsbL-0500_RLatLon0.09_PT077H.grib2 2026-04-14 15:03 482K
20260414T12Z_MSC_RDPS_SpecificHumidity_IsbL-0550_RLatLon0.09_PT077H.grib2 2026-04-14 15:03 540K
20260414T12Z_MSC_RDPS_SpecificHumidity_IsbL-0600_RLatLon0.09_PT077H.grib2 2026-04-14 15:03 608K
20260414T12Z_MSC_RDPS_SpecificHumidity_IsbL-0650_RLatLon0.09_PT077H.grib2 2026-04-14 15:03 527K
20260414T12Z_MSC_RDPS_SpecificHumidity_IsbL-0700_RLatLon0.09_PT077H.grib2 2026-04-14 15:03 572K
20260414T12Z_MSC_RDPS_SpecificHumidity_IsbL-0750_RLatLon0.09_PT077H.grib2 2026-04-14 15:03 636K
20260414T12Z_MSC_RDPS_SpecificHumidity_IsbL-0800_RLatLon0.09_PT077H.grib2 2026-04-14 15:03 726K
20260414T12Z_MSC_RDPS_SpecificHumidity_IsbL-0850_RLatLon0.09_PT077H.grib2 2026-04-14 15:03 792K
20260414T12Z_MSC_RDPS_SpecificHumidity_IsbL-0875_RLatLon0.09_PT077H.grib2 2026-04-14 15:03 813K
20260414T12Z_MSC_RDPS_SpecificHumidity_IsbL-0900_RLatLon0.09_PT077H.grib2 2026-04-14 15:03 828K
20260414T12Z_MSC_RDPS_SpecificHumidity_IsbL-0925_RLatLon0.09_PT077H.grib2 2026-04-14 15:03 833K
20260414T12Z_MSC_RDPS_SpecificHumidity_IsbL-0950_RLatLon0.09_PT077H.grib2 2026-04-14 15:03 693K
20260414T12Z_MSC_RDPS_SpecificHumidity_IsbL-0970_RLatLon0.09_PT077H.grib2 2026-04-14 15:03 689K
20260414T12Z_MSC_RDPS_SpecificHumidity_IsbL-0985_RLatLon0.09_PT077H.grib2 2026-04-14 15:03 685K
20260414T12Z_MSC_RDPS_SpecificHumidity_IsbL-1000_RLatLon0.09_PT077H.grib2 2026-04-14 15:03 678K
20260414T12Z_MSC_RDPS_SpecificHumidity_IsbL-1015_RLatLon0.09_PT077H.grib2 2026-04-14 15:03 667K
20260414T12Z_MSC_RDPS_SpecificHumidity_Sfc_RLatLon0.09_PT077H.grib2 2026-04-14 15:03 324K
20260414T12Z_MSC_RDPS_StormRelativeHelicity_EtaL-10000_RLatLon0.09_PT077H.grib2 2026-04-14 15:03 1.1M
20260414T12Z_MSC_RDPS_StormSeverityIndex_EtaL-10000_RLatLon0.09_PT077H.grib2 2026-04-14 15:03 1.2M
20260414T12Z_MSC_RDPS_Thickness_IsbL-0850to0700_RLatLon0.09_PT077H.grib2 2026-04-14 15:03 175K
20260414T12Z_MSC_RDPS_Thickness_IsbL-1000to0500_RLatLon0.09_PT077H.grib2 2026-04-14 15:03 201K
20260414T12Z_MSC_RDPS_Thickness_IsbL-1000to0850_RLatLon0.09_PT077H.grib2 2026-04-14 15:03 188K
20260414T12Z_MSC_RDPS_TotalCloudCover_Sfc_RLatLon0.09_PT077H.grib2 2026-04-14 15:03 660K
20260414T12Z_MSC_RDPS_TotalTotalsIndex_Sfc_RLatLon0.09_PT077H.grib2 2026-04-14 15:03 2.4M
20260414T12Z_MSC_RDPS_UVIndex-ClearSky_Sfc_RLatLon0.09_PT077H.grib2 2026-04-14 15:03 211K
20260414T12Z_MSC_RDPS_UVIndex_Sfc_RLatLon0.09_PT077H.grib2 2026-04-14 15:03 487K
20260414T12Z_MSC_RDPS_UpwardLongwaveRadiationFlux_NTAtm_RLatLon0.09_PT077H.grib2 2026-04-14 15:03 486K
20260414T12Z_MSC_RDPS_UpwardShortwaveRadiationFlux_NTAtm_RLatLon0.09_PT077H.grib2 2026-04-14 15:03 528K
20260414T12Z_MSC_RDPS_VerticalVelocity_IsbL-0250_RLatLon0.09_PT077H.grib2 2026-04-14 15:03 547K
20260414T12Z_MSC_RDPS_VerticalVelocity_IsbL-0500_RLatLon0.09_PT077H.grib2 2026-04-14 15:03 532K
20260414T12Z_MSC_RDPS_VerticalVelocity_IsbL-0700_RLatLon0.09_PT077H.grib2 2026-04-14 15:03 576K
20260414T12Z_MSC_RDPS_VerticalVelocity_IsbL-0850_RLatLon0.09_PT077H.grib2 2026-04-14 15:03 686K
20260414T12Z_MSC_RDPS_VerticalWindShear_EtaL-6500_RLatLon0.09_PT077H.grib2 2026-04-14 15:03 1.2M
20260414T12Z_MSC_RDPS_WindChill_Sfc_RLatLon0.09_PT077H.grib2 2026-04-14 15:03 1.3M
20260414T12Z_MSC_RDPS_WindDir_AGL-10m_RLatLon0.09_PT077H.grib2 2026-04-14 15:03 1.0M
20260414T12Z_MSC_RDPS_WindDir_AGL-120m_RLatLon0.09_PT077H.grib2 2026-04-14 15:03 621K
20260414T12Z_MSC_RDPS_WindDir_AGL-40m_RLatLon0.09_PT077H.grib2 2026-04-14 15:03 647K
20260414T12Z_MSC_RDPS_WindDir_AGL-80m_RLatLon0.09_PT077H.grib2 2026-04-14 15:03 631K
20260414T12Z_MSC_RDPS_WindDir_IsbL-0001_RLatLon0.09_PT077H.grib2 2026-04-14 15:03 266K
20260414T12Z_MSC_RDPS_WindDir_IsbL-0005_RLatLon0.09_PT077H.grib2 2026-04-14 15:03 335K
20260414T12Z_MSC_RDPS_WindDir_IsbL-0010_RLatLon0.09_PT077H.grib2 2026-04-14 15:03 361K
20260414T12Z_MSC_RDPS_WindDir_IsbL-0020_RLatLon0.09_PT077H.grib2 2026-04-14 15:03 375K
20260414T12Z_MSC_RDPS_WindDir_IsbL-0030_RLatLon0.09_PT077H.grib2 2026-04-14 15:03 381K
20260414T12Z_MSC_RDPS_WindDir_IsbL-0050_RLatLon0.09_PT077H.grib2 2026-04-14 15:03 398K
20260414T12Z_MSC_RDPS_WindDir_IsbL-0100_RLatLon0.09_PT077H.grib2 2026-04-14 15:03 386K
20260414T12Z_MSC_RDPS_WindDir_IsbL-0150_RLatLon0.09_PT077H.grib2 2026-04-14 15:03 376K
20260414T12Z_MSC_RDPS_WindDir_IsbL-0175_RLatLon0.09_PT077H.grib2 2026-04-14 15:03 395K
20260414T12Z_MSC_RDPS_WindDir_IsbL-0200_RLatLon0.09_PT077H.grib2 2026-04-14 15:03 413K
20260414T12Z_MSC_RDPS_WindDir_IsbL-0225_RLatLon0.09_PT077H.grib2 2026-04-14 15:03 422K
20260414T12Z_MSC_RDPS_WindDir_IsbL-0250_RLatLon0.09_PT077H.grib2 2026-04-14 15:03 429K
20260414T12Z_MSC_RDPS_WindDir_IsbL-0275_RLatLon0.09_PT077H.grib2 2026-04-14 15:03 450K
20260414T12Z_MSC_RDPS_WindDir_IsbL-0300_RLatLon0.09_PT077H.grib2 2026-04-14 15:03 449K
20260414T12Z_MSC_RDPS_WindDir_IsbL-0350_RLatLon0.09_PT077H.grib2 2026-04-14 15:03 471K
20260414T12Z_MSC_RDPS_WindDir_IsbL-0400_RLatLon0.09_PT077H.grib2 2026-04-14 15:03 488K
20260414T12Z_MSC_RDPS_WindDir_IsbL-0450_RLatLon0.09_PT077H.grib2 2026-04-14 15:03 505K
20260414T12Z_MSC_RDPS_WindDir_IsbL-0500_RLatLon0.09_PT077H.grib2 2026-04-14 15:03 526K
20260414T12Z_MSC_RDPS_WindDir_IsbL-0550_RLatLon0.09_PT077H.grib2 2026-04-14 15:03 551K
20260414T12Z_MSC_RDPS_WindDir_IsbL-0600_RLatLon0.09_PT077H.grib2 2026-04-14 15:03 578K
20260414T12Z_MSC_RDPS_WindDir_IsbL-0650_RLatLon0.09_PT077H.grib2 2026-04-14 15:03 619K
20260414T12Z_MSC_RDPS_WindDir_IsbL-0700_RLatLon0.09_PT077H.grib2 2026-04-14 15:03 671K
20260414T12Z_MSC_RDPS_WindDir_IsbL-0750_RLatLon0.09_PT077H.grib2 2026-04-14 15:03 723K
20260414T12Z_MSC_RDPS_WindDir_IsbL-0800_RLatLon0.09_PT077H.grib2 2026-04-14 15:03 782K
20260414T12Z_MSC_RDPS_WindDir_IsbL-0850_RLatLon0.09_PT077H.grib2 2026-04-14 15:03 854K
20260414T12Z_MSC_RDPS_WindDir_IsbL-0875_RLatLon0.09_PT077H.grib2 2026-04-14 15:03 884K
20260414T12Z_MSC_RDPS_WindDir_IsbL-0900_RLatLon0.09_PT077H.grib2 2026-04-14 15:03 906K
20260414T12Z_MSC_RDPS_WindDir_IsbL-0925_RLatLon0.09_PT077H.grib2 2026-04-14 15:03 917K
20260414T12Z_MSC_RDPS_WindDir_IsbL-0950_RLatLon0.09_PT077H.grib2 2026-04-14 15:03 920K
20260414T12Z_MSC_RDPS_WindDir_IsbL-0970_RLatLon0.09_PT077H.grib2 2026-04-14 15:03 927K
20260414T12Z_MSC_RDPS_WindDir_IsbL-0985_RLatLon0.09_PT077H.grib2 2026-04-14 15:03 938K
20260414T12Z_MSC_RDPS_WindDir_IsbL-1000_RLatLon0.09_PT077H.grib2 2026-04-14 15:03 955K
20260414T12Z_MSC_RDPS_WindDir_IsbL-1015_RLatLon0.09_PT077H.grib2 2026-04-14 15:03 1.0M
20260414T12Z_MSC_RDPS_WindGust-Max_AGL-10m_RLatLon0.09_PT077H.grib2 2026-04-14 15:03 960K
20260414T12Z_MSC_RDPS_WindGust-Min_AGL-10m_RLatLon0.09_PT077H.grib2 2026-04-14 15:03 1.0M
20260414T12Z_MSC_RDPS_WindGust_AGL-10m_RLatLon0.09_PT077H.grib2 2026-04-14 15:03 1.0M
20260414T12Z_MSC_RDPS_WindSpeed_AGL-10m_RLatLon0.09_PT077H.grib2 2026-04-14 15:03 853K
20260414T12Z_MSC_RDPS_WindSpeed_AGL-120m_RLatLon0.09_PT077H.grib2 2026-04-14 15:03 543K
20260414T12Z_MSC_RDPS_WindSpeed_AGL-40m_RLatLon0.09_PT077H.grib2 2026-04-14 15:03 547K
20260414T12Z_MSC_RDPS_WindSpeed_AGL-80m_RLatLon0.09_PT077H.grib2 2026-04-14 15:03 544K
20260414T12Z_MSC_RDPS_WindSpeed_IsbL-0001_RLatLon0.09_PT077H.grib2 2026-04-14 15:03 252K
20260414T12Z_MSC_RDPS_WindSpeed_IsbL-0005_RLatLon0.09_PT077H.grib2 2026-04-14 15:03 339K
20260414T12Z_MSC_RDPS_WindSpeed_IsbL-0010_RLatLon0.09_PT077H.grib2 2026-04-14 15:03 350K
20260414T12Z_MSC_RDPS_WindSpeed_IsbL-0020_RLatLon0.09_PT077H.grib2 2026-04-14 15:03 371K
20260414T12Z_MSC_RDPS_WindSpeed_IsbL-0030_RLatLon0.09_PT077H.grib2 2026-04-14 15:03 335K
20260414T12Z_MSC_RDPS_WindSpeed_IsbL-0050_RLatLon0.09_PT077H.grib2 2026-04-14 15:03 369K
20260414T12Z_MSC_RDPS_WindSpeed_IsbL-0100_RLatLon0.09_PT077H.grib2 2026-04-14 15:03 486K
20260414T12Z_MSC_RDPS_WindSpeed_IsbL-0150_RLatLon0.09_PT077H.grib2 2026-04-14 15:03 366K
20260414T12Z_MSC_RDPS_WindSpeed_IsbL-0175_RLatLon0.09_PT077H.grib2 2026-04-14 15:03 389K
20260414T12Z_MSC_RDPS_WindSpeed_IsbL-0200_RLatLon0.09_PT077H.grib2 2026-04-14 15:03 431K
20260414T12Z_MSC_RDPS_WindSpeed_IsbL-0225_RLatLon0.09_PT077H.grib2 2026-04-14 15:03 442K
20260414T12Z_MSC_RDPS_WindSpeed_IsbL-0250_RLatLon0.09_PT077H.grib2 2026-04-14 15:03 447K
20260414T12Z_MSC_RDPS_WindSpeed_IsbL-0275_RLatLon0.09_PT077H.grib2 2026-04-14 15:03 465K
20260414T12Z_MSC_RDPS_WindSpeed_IsbL-0300_RLatLon0.09_PT077H.grib2 2026-04-14 15:03 461K
20260414T12Z_MSC_RDPS_WindSpeed_IsbL-0350_RLatLon0.09_PT077H.grib2 2026-04-14 15:03 470K
20260414T12Z_MSC_RDPS_WindSpeed_IsbL-0400_RLatLon0.09_PT077H.grib2 2026-04-14 15:03 470K
20260414T12Z_MSC_RDPS_WindSpeed_IsbL-0450_RLatLon0.09_PT077H.grib2 2026-04-14 15:03 450K
20260414T12Z_MSC_RDPS_WindSpeed_IsbL-0500_RLatLon0.09_PT077H.grib2 2026-04-14 15:03 564K
20260414T12Z_MSC_RDPS_WindSpeed_IsbL-0550_RLatLon0.09_PT077H.grib2 2026-04-14 15:03 567K
20260414T12Z_MSC_RDPS_WindSpeed_IsbL-0600_RLatLon0.09_PT077H.grib2 2026-04-14 15:03 578K
20260414T12Z_MSC_RDPS_WindSpeed_IsbL-0650_RLatLon0.09_PT077H.grib2 2026-04-14 15:03 600K
20260414T12Z_MSC_RDPS_WindSpeed_IsbL-0700_RLatLon0.09_PT077H.grib2 2026-04-14 15:03 623K
20260414T12Z_MSC_RDPS_WindSpeed_IsbL-0750_RLatLon0.09_PT077H.grib2 2026-04-14 15:03 655K
20260414T12Z_MSC_RDPS_WindSpeed_IsbL-0800_RLatLon0.09_PT077H.grib2 2026-04-14 15:03 706K
20260414T12Z_MSC_RDPS_WindSpeed_IsbL-0850_RLatLon0.09_PT077H.grib2 2026-04-14 15:03 765K
20260414T12Z_MSC_RDPS_WindSpeed_IsbL-0875_RLatLon0.09_PT077H.grib2 2026-04-14 15:03 789K
20260414T12Z_MSC_RDPS_WindSpeed_IsbL-0900_RLatLon0.09_PT077H.grib2 2026-04-14 15:03 809K
20260414T12Z_MSC_RDPS_WindSpeed_IsbL-0925_RLatLon0.09_PT077H.grib2 2026-04-14 15:03 820K
20260414T12Z_MSC_RDPS_WindSpeed_IsbL-0950_RLatLon0.09_PT077H.grib2 2026-04-14 15:03 867K
20260414T12Z_MSC_RDPS_WindSpeed_IsbL-0970_RLatLon0.09_PT077H.grib2 2026-04-14 15:03 866K
20260414T12Z_MSC_RDPS_WindSpeed_IsbL-0985_RLatLon0.09_PT077H.grib2 2026-04-14 15:03 861K
20260414T12Z_MSC_RDPS_WindSpeed_IsbL-1000_RLatLon0.09_PT077H.grib2 2026-04-14 15:03 861K
20260414T12Z_MSC_RDPS_WindSpeed_IsbL-1015_RLatLon0.09_PT077H.grib2 2026-04-14 15:03 852K
20260414T12Z_MSC_RDPS_WindU_AGL-10m_RLatLon0.09_PT077H.grib2 2026-04-14 15:03 440K
20260414T12Z_MSC_RDPS_WindU_AGL-120m_RLatLon0.09_PT077H.grib2 2026-04-14 15:03 423K
20260414T12Z_MSC_RDPS_WindU_AGL-40m_RLatLon0.09_PT077H.grib2 2026-04-14 15:03 545K
20260414T12Z_MSC_RDPS_WindU_AGL-80m_RLatLon0.09_PT077H.grib2 2026-04-14 15:03 425K
20260414T12Z_MSC_RDPS_WindU_IsbL-0001_RLatLon0.09_PT077H.grib2 2026-04-14 15:03 292K
20260414T12Z_MSC_RDPS_WindU_IsbL-0005_RLatLon0.09_PT077H.grib2 2026-04-14 15:03 304K
20260414T12Z_MSC_RDPS_WindU_IsbL-0010_RLatLon0.09_PT077H.grib2 2026-04-14 15:03 315K
20260414T12Z_MSC_RDPS_WindU_IsbL-0020_RLatLon0.09_PT077H.grib2 2026-04-14 15:03 260K
20260414T12Z_MSC_RDPS_WindU_IsbL-0030_RLatLon0.09_PT077H.grib2 2026-04-14 15:03 258K
20260414T12Z_MSC_RDPS_WindU_IsbL-0050_RLatLon0.09_PT077H.grib2 2026-04-14 15:03 362K
20260414T12Z_MSC_RDPS_WindU_IsbL-0100_RLatLon0.09_PT077H.grib2 2026-04-14 15:03 342K
20260414T12Z_MSC_RDPS_WindU_IsbL-0150_RLatLon0.09_PT077H.grib2 2026-04-14 15:03 384K
20260414T12Z_MSC_RDPS_WindU_IsbL-0175_RLatLon0.09_PT077H.grib2 2026-04-14 15:03 408K
20260414T12Z_MSC_RDPS_WindU_IsbL-0200_RLatLon0.09_PT077H.grib2 2026-04-14 15:03 426K
20260414T12Z_MSC_RDPS_WindU_IsbL-0225_RLatLon0.09_PT077H.grib2 2026-04-14 15:03 434K
20260414T12Z_MSC_RDPS_WindU_IsbL-0250_RLatLon0.09_PT077H.grib2 2026-04-14 15:03 339K
20260414T12Z_MSC_RDPS_WindU_IsbL-0275_RLatLon0.09_PT077H.grib2 2026-04-14 15:03 354K
20260414T12Z_MSC_RDPS_WindU_IsbL-0300_RLatLon0.09_PT077H.grib2 2026-04-14 15:03 350K
20260414T12Z_MSC_RDPS_WindU_IsbL-0350_RLatLon0.09_PT077H.grib2 2026-04-14 15:03 356K
20260414T12Z_MSC_RDPS_WindU_IsbL-0400_RLatLon0.09_PT077H.grib2 2026-04-14 15:03 355K
20260414T12Z_MSC_RDPS_WindU_IsbL-0450_RLatLon0.09_PT077H.grib2 2026-04-14 15:03 455K
20260414T12Z_MSC_RDPS_WindU_IsbL-0500_RLatLon0.09_PT077H.grib2 2026-04-14 15:03 455K
20260414T12Z_MSC_RDPS_WindU_IsbL-0550_RLatLon0.09_PT077H.grib2 2026-04-14 15:03 457K
20260414T12Z_MSC_RDPS_WindU_IsbL-0600_RLatLon0.09_PT077H.grib2 2026-04-14 15:03 467K
20260414T12Z_MSC_RDPS_WindU_IsbL-0650_RLatLon0.09_PT077H.grib2 2026-04-14 15:03 485K
20260414T12Z_MSC_RDPS_WindU_IsbL-0700_RLatLon0.09_PT077H.grib2 2026-04-14 15:03 506K
20260414T12Z_MSC_RDPS_WindU_IsbL-0750_RLatLon0.09_PT077H.grib2 2026-04-14 15:03 534K
20260414T12Z_MSC_RDPS_WindU_IsbL-0800_RLatLon0.09_PT077H.grib2 2026-04-14 15:03 567K
20260414T12Z_MSC_RDPS_WindU_IsbL-0850_RLatLon0.09_PT077H.grib2 2026-04-14 15:03 629K
20260414T12Z_MSC_RDPS_WindU_IsbL-0875_RLatLon0.09_PT077H.grib2 2026-04-14 15:03 648K
20260414T12Z_MSC_RDPS_WindU_IsbL-0900_RLatLon0.09_PT077H.grib2 2026-04-14 15:03 663K
20260414T12Z_MSC_RDPS_WindU_IsbL-0925_RLatLon0.09_PT077H.grib2 2026-04-14 15:03 671K
20260414T12Z_MSC_RDPS_WindU_IsbL-0950_RLatLon0.09_PT077H.grib2 2026-04-14 15:03 662K
20260414T12Z_MSC_RDPS_WindU_IsbL-0970_RLatLon0.09_PT077H.grib2 2026-04-14 15:03 660K
20260414T12Z_MSC_RDPS_WindU_IsbL-0985_RLatLon0.09_PT077H.grib2 2026-04-14 15:03 660K
20260414T12Z_MSC_RDPS_WindU_IsbL-1000_RLatLon0.09_PT077H.grib2 2026-04-14 15:03 800K
20260414T12Z_MSC_RDPS_WindU_IsbL-1015_RLatLon0.09_PT077H.grib2 2026-04-14 15:03 795K
20260414T12Z_MSC_RDPS_WindV_AGL-10m_RLatLon0.09_PT077H.grib2 2026-04-14 15:03 437K
20260414T12Z_MSC_RDPS_WindV_AGL-120m_RLatLon0.09_PT077H.grib2 2026-04-14 15:03 420K
20260414T12Z_MSC_RDPS_WindV_AGL-40m_RLatLon0.09_PT077H.grib2 2026-04-14 15:03 539K
20260414T12Z_MSC_RDPS_WindV_AGL-80m_RLatLon0.09_PT077H.grib2 2026-04-14 15:03 420K
20260414T12Z_MSC_RDPS_WindV_IsbL-0001_RLatLon0.09_PT077H.grib2 2026-04-14 15:03 208K
20260414T12Z_MSC_RDPS_WindV_IsbL-0005_RLatLon0.09_PT077H.grib2 2026-04-14 15:03 304K
20260414T12Z_MSC_RDPS_WindV_IsbL-0010_RLatLon0.09_PT077H.grib2 2026-04-14 15:03 314K
20260414T12Z_MSC_RDPS_WindV_IsbL-0020_RLatLon0.09_PT077H.grib2 2026-04-14 15:03 328K
20260414T12Z_MSC_RDPS_WindV_IsbL-0030_RLatLon0.09_PT077H.grib2 2026-04-14 15:03 328K
20260414T12Z_MSC_RDPS_WindV_IsbL-0050_RLatLon0.09_PT077H.grib2 2026-04-14 15:03 362K
20260414T12Z_MSC_RDPS_WindV_IsbL-0100_RLatLon0.09_PT077H.grib2 2026-04-14 15:03 432K
20260414T12Z_MSC_RDPS_WindV_IsbL-0150_RLatLon0.09_PT077H.grib2 2026-04-14 15:03 381K
20260414T12Z_MSC_RDPS_WindV_IsbL-0175_RLatLon0.09_PT077H.grib2 2026-04-14 15:03 405K
20260414T12Z_MSC_RDPS_WindV_IsbL-0200_RLatLon0.09_PT077H.grib2 2026-04-14 15:03 425K
20260414T12Z_MSC_RDPS_WindV_IsbL-0225_RLatLon0.09_PT077H.grib2 2026-04-14 15:03 336K
20260414T12Z_MSC_RDPS_WindV_IsbL-0250_RLatLon0.09_PT077H.grib2 2026-04-14 15:03 340K
20260414T12Z_MSC_RDPS_WindV_IsbL-0275_RLatLon0.09_PT077H.grib2 2026-04-14 15:03 353K
20260414T12Z_MSC_RDPS_WindV_IsbL-0300_RLatLon0.09_PT077H.grib2 2026-04-14 15:03 348K
20260414T12Z_MSC_RDPS_WindV_IsbL-0350_RLatLon0.09_PT077H.grib2 2026-04-14 15:03 354K
20260414T12Z_MSC_RDPS_WindV_IsbL-0400_RLatLon0.09_PT077H.grib2 2026-04-14 15:03 456K
20260414T12Z_MSC_RDPS_WindV_IsbL-0450_RLatLon0.09_PT077H.grib2 2026-04-14 15:03 454K
20260414T12Z_MSC_RDPS_WindV_IsbL-0500_RLatLon0.09_PT077H.grib2 2026-04-14 15:03 452K
20260414T12Z_MSC_RDPS_WindV_IsbL-0550_RLatLon0.09_PT077H.grib2 2026-04-14 15:03 456K
20260414T12Z_MSC_RDPS_WindV_IsbL-0600_RLatLon0.09_PT077H.grib2 2026-04-14 15:03 465K
20260414T12Z_MSC_RDPS_WindV_IsbL-0650_RLatLon0.09_PT077H.grib2 2026-04-14 15:03 466K
20260414T12Z_MSC_RDPS_WindV_IsbL-0700_RLatLon0.09_PT077H.grib2 2026-04-14 15:03 488K
20260414T12Z_MSC_RDPS_WindV_IsbL-0750_RLatLon0.09_PT077H.grib2 2026-04-14 15:03 517K
20260414T12Z_MSC_RDPS_WindV_IsbL-0800_RLatLon0.09_PT077H.grib2 2026-04-14 15:03 561K
20260414T12Z_MSC_RDPS_WindV_IsbL-0850_RLatLon0.09_PT077H.grib2 2026-04-14 15:03 614K
20260414T12Z_MSC_RDPS_WindV_IsbL-0875_RLatLon0.09_PT077H.grib2 2026-04-14 15:03 636K
20260414T12Z_MSC_RDPS_WindV_IsbL-0900_RLatLon0.09_PT077H.grib2 2026-04-14 15:03 652K
20260414T12Z_MSC_RDPS_WindV_IsbL-0925_RLatLon0.09_PT077H.grib2 2026-04-14 15:03 659K
20260414T12Z_MSC_RDPS_WindV_IsbL-0950_RLatLon0.09_PT077H.grib2 2026-04-14 15:03 656K
20260414T12Z_MSC_RDPS_WindV_IsbL-0970_RLatLon0.09_PT077H.grib2 2026-04-14 15:03 653K
20260414T12Z_MSC_RDPS_WindV_IsbL-0985_RLatLon0.09_PT077H.grib2 2026-04-14 15:03 793K
20260414T12Z_MSC_RDPS_WindV_IsbL-1000_RLatLon0.09_PT077H.grib2 2026-04-14 15:03 793K
20260414T12Z_MSC_RDPS_WindV_IsbL-1015_RLatLon0.09_PT077H.grib2 2026-04-14 15:03 787K